Powrót do katalogu

FENGYUN 1C DEB

AktywnySSO
NORAD 30715·DEBRIS·🇨🇳 China

Wystrzelony May 10, 1999 z Taiyuan Satellite Launch Center

Loading…

Następne Przeloty (najbliższe 24 godziny)

TLE

ŚwieżeSource: Space-Track

Epoka: Sep 14, 2026, 03:59 UTC

1 30715U 99025ARZ 26257.16600278  .00001833  00000-0  92970-3 0  9998
2 30715  98.9599 332.8963 0066442 107.1336 253.7128 14.16126850   725

Śledź FENGYUN 1C DEB w czasie rzeczywistym z AllMySat

Download on the App Store